| time (UTC) | temp F | wind direction | speed knots | gust knots | rain 1hr in | rain 24hr in | rain mn in | humidity % | barometer mb |
| 20260906022431 | 78 | 103 | 0.0 | 0.9 | 0.00 | 0.00 | 0.00 | 88 | 1012.4 |
| 20260906021926 | 77 | 111 | 1.7 | 1.7 | 0.00 | 0.00 | 0.00 | 92 | 1012.2 |
| 20260906021427 | 78 | 102 | 0.9 | 0.9 | 0.00 | 0.00 | 0.00 | 91 | 1012.2 |
| 20260906020926 | 78 | 100 | 0.0 | 0.9 | 0.00 | 0.00 | 0.00 | 90 | 1011.9 |
| 20260906020421 | 77 | 84 | 0.9 | 0.9 | 0.00 | 0.00 | 0.00 | 93 | 1012.0 |
| 20260906015915 | 77 | 50 | 0.9 | 0.9 | 0.00 | 0.00 | 0.00 | 94 | 1012.0 |
| 20260906015415 | 78 | 9 | 0.9 | 0.9 | 0.00 | 0.00 | 0.00 | 93 | 1011.9 |
| 20260906014915 | 78 | 9 | 0.0 | 0.0 | 0.00 | 0.00 | 0.00 | 92 | 1011.9 |
| 20260906014414 | 78 | 9 | 0.9 | 0.9 | 0.00 | 0.00 | 0.00 | 92 | 1012.0 |
| 20260906013911 | 78 | 8 | 0.0 | 0.0 | 0.00 | 0.00 | 0.00 | 91 | 1012.4 |
| 20260906013406 | 78 | 3 | 0.9 | 0.9 | 0.00 | 0.00 | 0.00 | 94 | 1012.1 |
| 20260906012902 | 77 | 304 | 0.9 | 0.9 | 0.00 | 0.00 | 0.00 | 94 | 1011.9 |
| 20260906012356 | 77 | 303 | 0.0 | 0.0 | 0.00 | 0.00 | 0.00 | 93 | 1011.9 |
| 20260906011856 | 78 | 303 | 0.0 | 1.7 | 0.00 | 0.00 | 0.00 | 92 | 1011.8 |
| 20260906011356 | 79 | 358 | 0.0 | 0.0 | 0.00 | 0.00 | 0.00 | 92 | 1011.6 |
| 20260906010852 | 79 | 358 | 0.0 | 0.0 | 0.00 | 0.00 | 0.00 | 92 | 1011.6 |
| 20260906010348 | 79 | 358 | 0.0 | 0.0 | 0.00 | 0.00 | 0.00 | 92 | 1011.5 |
| 20260906005843 | 79 | 358 | 0.0 | 0.0 | 0.00 | 0.00 | 0.00 | 92 | 1011.3 |
| 20260906005342 | 79 | 358 | 0.0 | 0.0 | 0.00 | 0.00 | 0.00 | 92 | 1011.3 |
| 20260906004841 | 79 | 358 | 0.0 | 0.0 | 0.00 | 0.00 | 0.00 | 91 | 1011.5 |
| 20260906004341 | 80 | 358 | 0.0 | 0.0 | 0.00 | 0.00 | 0.00 | 91 | 1011.4 |
| 20260906003837 | 80 | 358 | 0.0 | 0.0 | 0.00 | 0.00 | 0.00 | 91 | 1011.2 |
| 20260906003332 | 80 | 358 | 0.0 | 0.0 | 0.00 | 0.00 | 0.00 | 90 | 1011.4 |
| 20260906002827 | 80 | 358 | 0.0 | 0.0 | 0.00 | 0.00 | 0.00 | 88 | 1011.2 |
| 20260906002326 | 81 | 358 | 0.0 | 0.0 | 0.00 | 0.00 | 0.00 | 88 | 1011.4 |
| 20260906001823 | 81 | 358 | 0.0 | 0.0 | 0.00 | 0.00 | 0.00 | 88 | 1011.6 |
| 20260906001318 | 81 | 358 | 0.0 | 0.0 | 0.00 | 0.00 | 0.00 | 88 | 1011.9 |
| 20260906000813 | 82 | 358 | 0.0 | 0.0 | 0.00 | 0.00 | 0.00 | 86 | 1011.8 |
| 20260906000307 | 82 | 358 | 0.0 | 0.0 | 0.00 | 0.00 | 0.00 | 84 | 1011.9 |
| 20260905235802 | 83 | 358 | 0.0 | 0.0 | 0.00 | 0.00 | 0.00 | 81 | 1012.0 |
| 20260905235306 | 83 | 358 | 0.0 | 0.0 | 0.00 | 0.00 | 0.00 | 81 | 1012.1 |
| 20260905234758 | 83 | 358 | 0.0 | 0.0 | 0.00 | 0.00 | 0.00 | 81 | 1012.1 |
| 20260905234252 | 84 | 358 | 0.0 | 0.0 | 0.00 | 0.00 | 0.00 | 80 | 1011.9 |
| 20260905233748 | 84 | 358 | 0.0 | 0.0 | 0.00 | 0.00 | 0.00 | 80 | 1011.8 |
| 20260905233247 | 85 | 358 | 0.0 | 0.0 | 0.00 | 0.00 | 0.00 | 77 | 1011.8 |
| 20260905232747 | 85 | 358 | 0.0 | 0.0 | 0.00 | 0.00 | 0.00 | 77 | 1012.1 |
| 20260905232243 | 85 | 358 | 0.0 | 0.0 | 0.00 | 0.00 | 0.00 | 75 | 1012.0 |
| 20260905231739 | 85 | 358 | 0.0 | 0.0 | 0.00 | 0.00 | 0.00 | 75 | 1012.1 |
| 20260905231234 | 86 | 358 | 0.9 | 0.9 | 0.00 | 0.00 | 0.00 | 75 | 1012.3 |
| 20260905230730 | 87 | 358 | 0.0 | 0.0 | 0.00 | 0.00 | 0.00 | 68 | 1011.9 |
| 20260905230228 | 87 | 358 | 0.0 | 0.0 | 0.00 | 0.00 | 0.00 | 69 | 1011.9 |
| 20260905225727 | 87 | 358 | 0.0 | 0.0 | 0.00 | 0.00 | 0.00 | 65 | 1011.8 |
| 20260905225223 | 88 | 358 | 0.0 | 0.0 | 0.00 | 0.00 | 0.00 | 63 | 1011.7 |
| 20260905224722 | 88 | 358 | 0.0 | 0.0 | 0.00 | 0.00 | 0.00 | 60 | 1011.9 |
| 20260905224217 | 89 | 359 | 0.9 | 0.9 | 0.00 | 0.00 | 0.00 | 59 | 1011.9 |
| 20260905223713 | 89 | 358 | 0.0 | 0.9 | 0.00 | 0.00 | 0.00 | 59 | 1011.9 |
| 20260905223210 | 90 | 358 | 0.0 | 0.9 | 0.00 | 0.00 | 0.00 | 59 | 1011.8 |
| 20260905222706 | 90 | 358 | 0.0 | 0.0 | 0.00 | 0.00 | 0.00 | 58 | 1011.9 |
| 20260905222205 | 91 | 358 | 0.0 | 0.0 | 0.00 | 0.00 | 0.00 | 60 | 1012.0 |
| 20260905221700 | 91 | 358 | 0.0 | 0.0 | 0.00 | 0.00 | 0.00 | 59 | 1012.0 |
| 20260905221157 | 91 | 354 | 0.0 | 0.9 | 0.00 | 0.00 | 0.00 | 57 | 1011.9 |
| 20260905220653 | 92 | 353 | 0.9 | 1.7 | 0.00 | 0.00 | 0.00 | 53 | 1011.9 |
| 20260905220149 | 92 | 12 | 0.9 | 2.6 | 0.00 | 0.00 | 0.00 | 54 | 1011.7 |
| 20260905215648 | 92 | 10 | 2.6 | 2.6 | 0.00 | 0.00 | 0.00 | 52 | 1012.0 |
| 20260905215144 | 92 | 336 | 2.6 | 3.5 | 0.00 | 0.00 | 0.00 | 52 | 1011.9 |
| 20260905214640 | 93 | 292 | 2.6 | 3.5 | 0.00 | 0.00 | 0.00 | 51 | 1011.9 |
| 20260905214135 | 93 | 348 | 3.5 | 2.6 | 0.00 | 0.00 | 0.00 | 50 | 1011.5 |
| 20260905213630 | 93 | 330 | 3.5 | 5.2 | 0.00 | 0.00 | 0.00 | 49 | 1012.1 |
| 20260905213125 | 94 | 326 | 2.6 | 2.6 | 0.00 | 0.00 | 0.00 | 50 | 1011.7 |
| 20260905212620 | 94 | 321 | 1.7 | 3.5 | 0.00 | 0.00 | 0.00 | 49 | 1011.6 |
| 20260905212120 | 94 | 271 | 1.7 | 5.2 | 0.00 | 0.00 | 0.00 | 49 | 1011.8 |
| 20260905211615 | 94 | 333 | 1.7 | 1.7 | 0.00 | 0.00 | 0.00 | 50 | 1011.7 |
| 20260905211110 | 93 | 342 | 1.7 | 5.2 | 0.00 | 0.00 | 0.00 | 50 | 1012.1 |
| 20260905210608 | 95 | 338 | 2.6 | 3.5 | 0.00 | 0.00 | 0.00 | 47 | 1012.0 |
| 20260905210107 | 95 | 334 | 2.6 | 3.5 | 0.00 | 0.00 | 0.00 | 48 | 1011.8 |
| 20260905205606 | 95 | 295 | 2.6 | 2.6 | 0.00 | 0.00 | 0.00 | 49 | 1011.8 |
| 20260905205106 | 95 | 354 | 1.7 | 1.7 | 0.00 | 0.00 | 0.00 | 49 | 1011.8 |
| 20260905204600 | 94 | 296 | 0.9 | 2.6 | 0.00 | 0.00 | 0.00 | 49 | 1012.0 |
| 20260905204056 | 94 | 21 | 0.9 | 5.2 | 0.00 | 0.00 | 0.00 | 48 | 1011.9 |
| 20260905203555 | 94 | 334 | 3.5 | 3.5 | 0.00 | 0.00 | 0.00 | 47 | 1012.0 |
| 20260905203051 | 95 | 327 | 3.5 | 5.2 | 0.00 | 0.00 | 0.00 | 47 | 1012.1 |
| 20260905202546 | 94 | 325 | 1.7 | 2.6 | 0.00 | 0.00 | 0.00 | 48 | 1012.3 |
| 20260905202042 | 94 | 322 | 2.6 | 3.5 | 0.00 | 0.00 | 0.00 | 48 | 1012.3 |
| 20260905201537 | 94 | 324 | 1.7 | 5.2 | 0.00 | 0.00 | 0.00 | 46 | 1012.2 |
| 20260905201037 | 94 | 324 | 0.9 | 1.7 | 0.00 | 0.00 | 0.00 | 48 | 1012.7 |
| 20260905200532 | 94 | 319 | 2.6 | 5.2 | 0.00 | 0.00 | 0.00 | 46 | 1012.5 |
| 20260905200032 | 94 | 308 | 2.6 | 3.5 | 0.00 | 0.00 | 0.00 | 47 | 1012.5 |
| 20260905195526 | 95 | 327 | 1.7 | 3.5 | 0.00 | 0.00 | 0.00 | 47 | 1012.4 |
| 20260905195022 | 95 | 280 | 3.5 | 5.2 | 0.00 | 0.00 | 0.00 | 46 | 1012.6 |
| 20260905194521 | 94 | 105 | 0.9 | 1.7 | 0.00 | 0.00 | 0.00 | 46 | 1012.8 |
| 20260905194021 | 94 | 305 | 1.7 | 2.6 | 0.00 | 0.00 | 0.00 | 45 | 1012.8 |
| 20260905193521 | 94 | 307 | 3.5 | 5.2 | 0.00 | 0.00 | 0.00 | 47 | 1012.8 |
| 20260905193016 | 95 | 156 | 2.6 | 3.5 | 0.00 | 0.00 | 0.00 | 45 | 1012.7 |
| 20260905192512 | 94 | 260 | 1.7 | 1.7 | 0.00 | 0.00 | 0.00 | 48 | 1012.9 |
| 20260905192008 | 94 | 266 | 2.6 | 5.2 | 0.00 | 0.00 | 0.00 | 45 | 1013.0 |
| 20260905191507 | 94 | 157 | 0.0 | 2.6 | 0.00 | 0.00 | 0.00 | 46 | 1013.1 |
| 20260905191006 | 94 | 265 | 3.5 | 5.2 | 0.00 | 0.00 | 0.00 | 45 | 1012.9 |
| 20260905190504 | 94 | 266 | 1.7 | 2.6 | 0.00 | 0.00 | 0.00 | 45 | 1013.0 |
| 20260905190003 | 93 | 280 | 1.7 | 1.7 | 0.00 | 0.00 | 0.00 | 47 | 1013.0 |
| 20260905185458 | 94 | 223 | 1.7 | 7.0 | 0.00 | 0.00 | 0.00 | 46 | 1013.2 |
| 20260905184957 | 93 | 3 | 1.7 | 2.6 | 0.00 | 0.00 | 0.00 | 49 | 1013.3 |
| 20260905184452 | 93 | 301 | 2.6 | 2.6 | 0.00 | 0.00 | 0.00 | 47 | 1013.5 |
| 20260905183951 | 93 | 270 | 1.7 | 2.6 | 0.00 | 0.00 | 0.00 | 44 | 1013.2 |
| 20260905183450 | 93 | 228 | 2.6 | 5.2 | 0.00 | 0.00 | 0.00 | 47 | 1013.2 |
| 20260905182945 | 93 | 303 | 1.7 | 6.1 | 0.00 | 0.00 | 0.00 | 48 | 1013.5 |
| 20260905182445 | 93 | 289 | 1.7 | 2.6 | 0.00 | 0.00 | 0.00 | 46 | 1013.6 |
| 20260905181940 | 91 | 247 | 0.9 | 1.7 | 0.00 | 0.00 | 0.00 | 50 | 1013.5 |
| 20260905181435 | 91 | 175 | 2.6 | 5.2 | 0.00 | 0.00 | 0.00 | 47 | 1013.7 |
| 20260905180934 | 93 | 151 | 1.7 | 2.6 | 0.00 | 0.00 | 0.00 | 46 | 1013.7 |
| 20260905180429 | 91 | 197 | 0.9 | 1.7 | 0.00 | 0.00 | 0.00 | 47 | 1013.7 |
| 20260905175924 | 91 | 184 | 2.6 | 3.5 | 0.00 | 0.00 | 0.00 | 49 | 1013.8 |
| 20260905175423 | 90 | 278 | 1.7 | 2.6 | 0.00 | 0.00 | 0.00 | 51 | 1013.8 |
| 20260905174919 | 89 | 220 | 1.7 | 2.6 | 0.00 | 0.00 | 0.00 | 52 | 1014.0 |
| 20260905174414 | 88 | 251 | 0.9 | 2.6 | 0.00 | 0.00 | 0.00 | 56 | 1014.0 |
| 20260905173910 | 88 | 151 | 5.2 | 6.1 | 0.00 | 0.00 | 0.00 | 50 | 1014.1 |
| 20260905173407 | 89 | 158 | 5.2 | 6.1 | 0.00 | 0.00 | 0.00 | 53 | 1014.1 |
| 20260905172906 | 89 | 257 | 0.9 | 2.6 | 0.00 | 0.00 | 0.00 | 54 | 1013.9 |
| 20260905172404 | 89 | 178 | 1.7 | 3.5 | 0.00 | 0.00 | 0.00 | 53 | 1014.1 |
| 20260905171900 | 88 | 166 | 3.5 | 7.0 | 0.00 | 0.00 | 0.00 | 54 | 1014.1 |
| 20260905171357 | 89 | 146 | 0.9 | 1.7 | 0.00 | 0.00 | 0.00 | 53 | 1014.1 |
| 20260905170853 | 88 | 174 | 0.0 | 2.6 | 0.00 | 0.00 | 0.00 | 53 | 1014.2 |
| 20260905170349 | 88 | 167 | 2.6 | 5.2 | 0.00 | 0.00 | 0.00 | 52 | 1014.3 |
| 20260905165848 | 88 | 132 | 0.9 | 2.6 | 0.00 | 0.00 | 0.00 | 52 | 1014.5 |
| 20260905165344 | 88 | 171 | 1.7 | 3.5 | 0.00 | 0.00 | 0.00 | 52 | 1014.6 |
| 20260905164844 | 88 | 146 | 2.6 | 3.5 | 0.00 | 0.00 | 0.00 | 52 | 1014.4 |
| 20260905164339 | 87 | 169 | 4.3 | 5.2 | 0.00 | 0.00 | 0.00 | 55 | 1014.6 |
| 20260905163835 | 87 | 157 | 1.7 | 3.5 | 0.00 | 0.00 | 0.00 | 56 | 1014.4 |
| 20260905163331 | 87 | 149 | 2.6 | 3.5 | 0.00 | 0.00 | 0.00 | 57 | 1014.5 |
| 20260905162827 | 87 | 165 | 5.2 | 6.1 | 0.00 | 0.00 | 0.00 | 54 | 1014.6 |
| 20260905162327 | 87 | 168 | 1.7 | 3.5 | 0.00 | 0.00 | 0.00 | 60 | 1014.5 |
| 20260905161826 | 87 | 216 | 2.6 | 2.6 | 0.00 | 0.00 | 0.00 | 61 | 1014.3 |
| 20260905161326 | 86 | 157 | 3.5 | 6.1 | 0.00 | 0.00 | 0.00 | 57 | 1014.6 |
| 20260905160824 | 86 | 111 | 3.5 | 7.0 | 0.00 | 0.00 | 0.00 | 56 | 1014.5 |
| 20260905160319 | 86 | 166 | 7.0 | 7.8 | 0.00 | 0.00 | 0.00 | 56 | 1014.6 |
| 20260905155813 | 85 | 187 | 3.5 | 5.2 | 0.00 | 0.00 | 0.00 | 59 | 1014.7 |
| 20260905155312 | 85 | 140 | 5.2 | 6.1 | 0.00 | 0.00 | 0.00 | 57 | 1014.4 |
| 20260905154807 | 85 | 166 | 4.3 | 7.0 | 0.00 | 0.00 | 0.00 | 58 | 1014.7 |
| 20260905154302 | 85 | 146 | 3.5 | 7.0 | 0.00 | 0.00 | 0.00 | 58 | 1014.8 |
| 20260905153758 | 85 | 161 | 3.5 | 7.0 | 0.00 | 0.00 | 0.00 | 58 | 1014.9 |
| 20260905153254 | 85 | 177 | 0.9 | 6.1 | 0.00 | 0.00 | 0.00 | 60 | 1015.0 |
| 20260905152749 | 84 | 191 | 1.7 | 5.2 | 0.00 | 0.00 | 0.00 | 61 | 1015.1 |
| 20260905152248 | 84 | 182 | 3.5 | 3.5 | 0.00 | 0.00 | 0.00 | 61 | 1015.0 |
| 20260905151748 | 84 | 163 | 4.3 | 5.2 | 0.00 | 0.00 | 0.00 | 60 | 1015.6 |
| 20260905151244 | 83 | 166 | 4.3 | 6.1 | 0.00 | 0.00 | 0.00 | 62 | 1015.4 |
| 20260905150743 | 83 | 156 | 2.6 | 2.6 | 0.00 | 0.00 | 0.00 | 61 | 1015.3 |
| 20260905150243 | 84 | 147 | 1.7 | 6.1 | 0.00 | 0.00 | 0.00 | 60 | 1015.4 |
| 20260905145741 | 83 | 173 | 1.7 | 5.2 | 0.00 | 0.00 | 0.00 | 62 | 1015.3 |
| 20260905145236 | 83 | 87 | 1.7 | 5.2 | 0.00 | 0.00 | 0.00 | 61 | 1015.4 |
| 20260905144734 | 83 | 166 | 1.7 | 6.1 | 0.00 | 0.00 | 0.00 | 62 | 1015.1 |
| 20260905144230 | 82 | 122 | 2.6 | 3.5 | 0.00 | 0.00 | 0.00 | 65 | 1015.5 |
| 20260905143729 | 82 | 117 | 2.6 | 5.2 | 0.00 | 0.00 | 0.00 | 67 | 1015.3 |
| 20260905143229 | 80 | 175 | 1.7 | 1.7 | 0.00 | 0.00 | 0.00 | 70 | 1015.4 |
| 20260905142727 | 79 | 174 | 3.5 | 5.2 | 0.00 | 0.00 | 0.00 | 73 | 1015.5 |
| 20260905142222 | 77 | 174 | 1.7 | 2.6 | 0.00 | 0.00 | 0.00 | 77 | 1015.6 |
| 20260905141718 | 76 | 152 | 0.9 | 1.7 | 0.00 | 0.00 | 0.00 | 78 | 1015.7 |
| 20260905141214 | 77 | 114 | 2.6 | 5.2 | 0.00 | 0.00 | 0.00 | 78 | 1015.8 |
| 20260905140708 | 77 | 87 | 2.6 | 3.5 | 0.00 | 0.00 | 0.00 | 78 | 1015.6 |
| 20260905140203 | 77 | 182 | 4.3 | 5.2 | 0.00 | 0.00 | 0.00 | 79 | 1015.8 |
| 20260905135657 | 76 | 151 | 4.3 | 7.8 | 0.00 | 0.00 | 0.00 | 81 | 1015.7 |
| 20260905135154 | 75 | 119 | 1.7 | 3.5 | 0.00 | 0.00 | 0.00 | 82 | 1015.9 |
| 20260905134652 | 74 | 134 | 0.9 | 3.5 | 0.00 | 0.00 | 0.00 | 84 | 1015.7 |
| 20260905134152 | 74 | 141 | 3.5 | 6.1 | 0.00 | 0.00 | 0.00 | 84 | 1015.7 |
| 20260905133647 | 73 | 104 | 0.9 | 7.8 | 0.00 | 0.00 | 0.00 | 86 | 1015.7 |
| 20260905133147 | 73 | 102 | 1.7 | 3.5 | 0.00 | 0.00 | 0.00 | 86 | 1015.8 |
| 20260905132647 | 73 | 142 | 3.5 | 5.2 | 0.00 | 0.00 | 0.00 | 87 | 1015.8 |
| 20260905132142 | 72 | 135 | 1.7 | 2.6 | 0.00 | 0.00 | 0.00 | 87 | 1016.1 |
| 20260905131638 | 72 | 106 | 1.7 | 6.1 | 0.00 | 0.00 | 0.00 | 86 | 1016.0 |
| 20260905131137 | 72 | 71 | 2.6 | 3.5 | 0.00 | 0.00 | 0.00 | 85 | 1016.0 |
| 20260905130632 | 72 | 72 | 2.6 | 3.5 | 0.00 | 0.00 | 0.00 | 84 | 1015.9 |
| 20260905130127 | 73 | 38 | 2.6 | 3.5 | 0.00 | 0.00 | 0.00 | 83 | 1016.4 |
| 20260905125626 | 73 | 76 | 1.7 | 2.6 | 0.00 | 0.00 | 0.00 | 82 | 1016.3 |
| 20260905125122 | 73 | 146 | 5.2 | 7.8 | 0.00 | 0.00 | 0.00 | 81 | 1016.4 |
| 20260905124618 | 73 | 76 | 0.9 | 3.5 | 0.00 | 0.00 | 0.00 | 82 | 1016.2 |
| 20260905124114 | 73 | 53 | 1.7 | 3.5 | 0.00 | 0.00 | 0.00 | 82 | 1016.0 |
| 20260905123609 | 73 | 45 | 2.6 | 3.5 | 0.00 | 0.00 | 0.00 | 83 | 1016.1 |
| 20260905123107 | 74 | 29 | 2.6 | 3.5 | 0.00 | 0.00 | 0.00 | 82 | 1016.1 |
| 20260905122607 | 74 | 265 | 0.9 | 0.9 | 0.00 | 0.00 | 0.00 | 81 | 1015.1 |
| 20260905122106 | 74 | 0 | 0.0 | 2.6 | 0.00 | 0.00 | 0.00 | 81 | 1015.4 |
| 20260905121601 | 74 | 79 | 0.9 | 2.6 | 0.00 | 0.00 | 0.00 | 80 | 1015.5 |
| 20260905121056 | 74 | 96 | 2.6 | 2.6 | 0.00 | 0.00 | 0.00 | 80 | 1015.3 |
| 20260905120555 | 74 | 119 | 0.9 | 5.2 | 0.00 | 0.00 | 0.00 | 79 | 1015.1 |
| 20260905120051 | 75 | 46 | 1.7 | 3.5 | 0.00 | 0.00 | 0.00 | 79 | 1015.3 |
| 20260905115549 | 74 | 44 | 2.6 | 3.5 | 0.00 | 0.00 | 0.00 | 79 | 1015.5 |
| 20260905115044 | 74 | 131 | 2.6 | 5.2 | 0.00 | 0.00 | 0.00 | 80 | 1015.4 |
| 20260905114544 | 74 | 347 | 3.5 | 5.2 | 0.00 | 0.00 | 0.00 | 81 | 1015.3 |
| 20260905114043 | 73 | 108 | 0.9 | 3.5 | 0.00 | 0.00 | 0.00 | 82 | 1015.0 |
| 20260905113538 | 73 | 96 | 0.0 | 1.7 | 0.00 | 0.00 | 0.00 | 83 | 1015.0 |
| 20260905113033 | 74 | 342 | 3.5 | 5.2 | 0.00 | 0.00 | 0.00 | 82 | 1015.0 |
| 20260905112529 | 74 | 359 | 1.7 | 3.5 | 0.00 | 0.00 | 0.00 | 82 | 1014.8 |
| 20260905112024 | 74 | 77 | 2.6 | 7.0 | 0.00 | 0.00 | 0.00 | 81 | 1014.7 |
| 20260905111519 | 75 | 27 | 3.5 | 6.1 | 0.00 | 0.00 | 0.00 | 80 | 1014.8 |
| 20260905111018 | 75 | 1 | 1.7 | 12.2 | 0.00 | 0.00 | 0.00 | 79 | 1014.5 |
| 20260905110517 | 76 | 340 | 3.5 | 8.7 | 0.00 | 0.00 | 0.00 | 79 | 1014.4 |
| 20260905110013 | 76 | 16 | 2.6 | 5.2 | 0.00 | 0.00 | 0.00 | 82 | 1014.9 |
| 20260905105507 | 75 | 23 | 5.2 | 9.6 | 0.00 | 0.00 | 0.00 | 91 | 1014.4 |
| 20260905105007 | 75 | 220 | 0.0 | 0.9 | 0.00 | 0.00 | 0.00 | 93 | 1014.0 |
| 20260905104503 | 75 | 257 | 0.0 | 0.0 | 0.00 | 0.00 | 0.00 | 92 | 1013.8 |
| 20260905104002 | 75 | 252 | 0.9 | 0.9 | 0.00 | 0.00 | 0.00 | 93 | 1013.8 |
| 20260905103457 | 75 | 228 | 0.9 | 1.7 | 0.00 | 0.00 | 0.00 | 92 | 1013.6 |
| 20260905102954 | 75 | 245 | 0.9 | 0.9 | 0.00 | 0.00 | 0.00 | 91 | 1013.8 |
| 20260905102449 | 75 | 313 | 0.9 | 0.9 | 0.00 | 0.00 | 0.00 | 91 | 1013.8 |
| 20260905101945 | 74 | 317 | 1.7 | 3.5 | 0.00 | 0.00 | 0.00 | 97 | 1013.8 |
| 20260905101443 | 73 | 313 | 1.7 | 1.7 | 0.00 | 0.00 | 0.00 | 98 | 1014.1 |
| 20260905100943 | 72 | 314 | 1.7 | 2.6 | 0.00 | 0.00 | 0.00 | 98 | 1013.9 |
| 20260905100439 | 72 | 256 | 0.0 | 0.0 | 0.00 | 0.00 | 0.00 | 98 | 1013.6 |
| 20260905095938 | 72 | 255 | 0.0 | 0.0 | 0.00 | 0.00 | 0.00 | 98 | 1013.7 |
| 20260905095438 | 73 | 254 | 0.0 | 0.0 | 0.00 | 0.00 | 0.00 | 98 | 1013.7 |
| 20260905094933 | 72 | 254 | 0.0 | 0.0 | 0.00 | 0.00 | 0.00 | 98 | 1013.5 |
| 20260905094428 | 72 | 254 | 0.0 | 0.0 | 0.00 | 0.00 | 0.00 | 98 | 1013.6 |
| 20260905093927 | 72 | 241 | 0.0 | 0.0 | 0.00 | 0.00 | 0.00 | 98 | 1013.5 |
| 20260905093423 | 73 | 235 | 0.0 | 0.0 | 0.00 | 0.00 | 0.00 | 98 | 1013.6 |
| 20260905092918 | 73 | 235 | 0.0 | 0.9 | 0.00 | 0.00 | 0.00 | 98 | 1013.4 |
| 20260905092413 | 72 | 235 | 0.9 | 0.9 | 0.00 | 0.00 | 0.00 | 98 | 1013.3 |
| 20260905091909 | 72 | 263 | 0.9 | 0.9 | 0.00 | 0.00 | 0.00 | 98 | 1013.6 |
| 20260905091409 | 72 | 230 | 0.0 | 0.9 | 0.00 | 0.00 | 0.00 | 98 | 1013.3 |
| 20260905090908 | 72 | 232 | 0.0 | 0.0 | 0.00 | 0.00 | 0.00 | 98 | 1013.3 |
| 20260905090403 | 72 | 232 | 0.0 | 0.0 | 0.00 | 0.00 | 0.00 | 98 | 1013.3 |
| 20260905085903 | 72 | 232 | 0.0 | 0.0 | 0.00 | 0.00 | 0.00 | 98 | 1013.3 |
| 20260905085403 | 73 | 232 | 0.0 | 0.0 | 0.00 | 0.00 | 0.00 | 98 | 1013.2 |
| 20260905084859 | 73 | 232 | 0.0 | 0.0 | 0.00 | 0.00 | 0.00 | 98 | 1013.4 |
| 20260905084357 | 73 | 232 | 0.9 | 0.0 | 0.00 | 0.00 | 0.00 | 98 | 1013.4 |
| 20260905083853 | 73 | 232 | 0.0 | 0.0 | 0.00 | 0.00 | 0.00 | 98 | 1013.4 |
| 20260905083348 | 72 | 232 | 0.0 | 0.0 | 0.00 | 0.00 | 0.00 | 98 | 1013.2 |
| 20260905082843 | 72 | 232 | 0.0 | 0.0 | 0.00 | 0.00 | 0.00 | 98 | 1013.3 |
| 20260905082340 | 72 | 232 | 0.0 | 0.0 | 0.00 | 0.00 | 0.00 | 98 | 1013.3 |
| 20260905081835 | 72 | 232 | 0.0 | 0.0 | 0.00 | 0.00 | 0.00 | 98 | 1012.9 |
| 20260905081330 | 72 | 232 | 0.0 | 0.0 | 0.00 | 0.00 | 0.00 | 98 | 1013.1 |
| 20260905080829 | 72 | 232 | 0.0 | 0.0 | 0.00 | 0.00 | 0.00 | 98 | 1013.4 |
| 20260905080324 | 72 | 232 | 0.0 | 0.0 | 0.00 | 0.00 | 0.00 | 98 | 1013.1 |
| 20260905075822 | 72 | 232 | 0.0 | 0.0 | 0.00 | 0.00 | 0.00 | 98 | 1013.4 |
| 20260905075322 | 73 | 232 | 0.0 | 0.0 | 0.00 | 0.00 | 0.00 | 98 | 1013.1 |
| 20260905074821 | 73 | 232 | 0.0 | 0.0 | 0.00 | 0.00 | 0.00 | 98 | 1013.4 |
| 20260905074317 | 73 | 232 | 0.0 | 0.0 | 0.00 | 0.00 | 0.00 | 98 | 1013.2 |
| 20260905073812 | 73 | 232 | 0.0 | 0.0 | 0.00 | 0.00 | 0.00 | 98 | 1013.5 |
| 20260905073308 | 73 | 232 | 0.9 | 0.9 | 0.00 | 0.00 | 0.00 | 98 | 1013.6 |
| 20260905072808 | 72 | 232 | 0.0 | 0.0 | 0.00 | 0.00 | 0.00 | 98 | 1013.6 |
| 20260905072305 | 72 | 232 | 0.0 | 0.0 | 0.00 | 0.00 | 0.00 | 97 | 1013.5 |
| 20260905071759 | 72 | 232 | 0.0 | 0.0 | 0.00 | 0.00 | 0.00 | 97 | 1013.5 |
| 20260905071255 | 72 | 232 | 0.0 | 0.0 | 0.00 | 0.00 | 0.00 | 97 | 1013.6 |
| 20260905070749 | 72 | 232 | 0.0 | 0.0 | 0.00 | 0.00 | 0.00 | 97 | 1013.7 |
| 20260905070247 | 73 | 232 | 0.0 | 0.0 | 0.00 | 0.00 | 0.00 | 97 | 1013.9 |
| 20260905065745 | 73 | 232 | 0.0 | 0.0 | 0.00 | 0.00 | 0.00 | 97 | 1013.8 |
| 20260905065244 | 73 | 232 | 0.0 | 0.0 | 0.00 | 0.00 | 0.00 | 97 | 1013.8 |
| 20260905064739 | 73 | 232 | 0.0 | 0.0 | 0.00 | 0.00 | 0.00 | 97 | 1013.8 |
| 20260905064235 | 73 | 232 | 0.0 | 0.0 | 0.00 | 0.00 | 0.00 | 97 | 1013.9 |
| 20260905063733 | 74 | 232 | 0.0 | 0.0 | 0.00 | 0.00 | 0.00 | 97 | 1013.9 |
| 20260905063230 | 74 | 232 | 0.0 | 0.0 | 0.00 | 0.00 | 0.00 | 97 | 1014.2 |
| 20260905062726 | 74 | 232 | 0.0 | 0.0 | 0.00 | 0.00 | 0.00 | 97 | 1014.2 |
| 20260905062226 | 74 | 232 | 0.0 | 0.0 | 0.00 | 0.00 | 0.00 | 97 | 1014.1 |
| 20260905061725 | 74 | 232 | 0.0 | 0.9 | 0.00 | 0.00 | 0.00 | 97 | 1014.3 |
| 20260905061221 | 73 | 232 | 0.9 | 0.9 | 0.00 | 0.00 | 0.00 | 97 | 1014.4 |
| 20260905060720 | 73 | 232 | 0.0 | 0.0 | 0.00 | 0.00 | 0.00 | 96 | 1014.1 |
| 20260905060217 | 73 | 232 | 0.0 | 0.0 | 0.00 | 0.00 | 0.00 | 96 | 1014.4 |
| 20260905055715 | 73 | 232 | 0.0 | 0.0 | 0.00 | 0.00 | 0.00 | 96 | 1014.5 |
| 20260905055211 | 74 | 232 | 0.0 | 0.0 | 0.00 | 0.00 | 0.00 | 96 | 1014.7 |
| 20260905054706 | 74 | 232 | 0.0 | 0.0 | 0.00 | 0.00 | 0.00 | 96 | 1014.2 |
| 20260905054202 | 75 | 229 | 0.0 | 0.0 | 0.00 | 0.00 | 0.00 | 97 | 1014.5 |
| 20260905053701 | 75 | 229 | 0.9 | 0.9 | 0.00 | 0.00 | 0.00 | 97 | 1014.6 |
| 20260905053157 | 75 | 229 | 0.9 | 0.9 | 0.00 | 0.00 | 0.00 | 96 | 1014.5 |
| 20260905052656 | 75 | 230 | 0.9 | 0.9 | 0.00 | 0.00 | 0.00 | 96 | 1014.5 |
| 20260905052151 | 75 | 230 | 0.0 | 0.0 | 0.00 | 0.00 | 0.00 | 96 | 1014.6 |
| 20260905051646 | 75 | 230 | 0.0 | 0.0 | 0.00 | 0.00 | 0.00 | 96 | 1014.7 |
| 20260905051143 | 75 | 230 | 0.0 | 0.0 | 0.00 | 0.00 | 0.00 | 96 | 1014.9 |
| 20260905050639 | 75 | 230 | 0.0 | 0.0 | 0.00 | 0.00 | 0.00 | 96 | 1014.5 |
| 20260905050136 | 75 | 229 | 0.9 | 0.9 | 0.00 | 0.00 | 0.00 | 95 | 1014.6 |
| 20260905045635 | 75 | 229 | 0.9 | 0.9 | 0.00 | 0.00 | 0.00 | 95 | 1014.7 |
| 20260905045131 | 76 | 229 | 0.0 | 0.0 | 0.00 | 0.00 | 0.00 | 95 | 1014.6 |
| 20260905044630 | 76 | 229 | 0.0 | 0.0 | 0.00 | 0.00 | 0.00 | 95 | 1014.7 |
| 20260905044125 | 75 | 258 | 0.9 | 0.9 | 0.00 | 0.00 | 0.00 | 95 | 1014.6 |
| 20260905043624 | 75 | 296 | 0.0 | 0.0 | 0.00 | 0.00 | 0.00 | 95 | 1014.6 |
| 20260905043119 | 75 | 240 | 0.0 | 0.0 | 0.00 | 0.00 | 0.00 | 95 | 1014.5 |
| 20260905042618 | 75 | 239 | 0.0 | 0.0 | 0.00 | 0.00 | 0.00 | 95 | 1014.5 |
| 20260905042113 | 75 | 239 | 0.0 | 0.0 | 0.00 | 0.00 | 0.00 | 95 | 1014.7 |
| 20260905041609 | 75 | 239 | 0.0 | 0.0 | 0.00 | 0.00 | 0.00 | 95 | 1014.6 |
| 20260905041105 | 75 | 239 | 0.0 | 0.0 | 0.00 | 0.00 | 0.00 | 94 | 1014.7 |
| 20260905040604 | 76 | 239 | 0.0 | 0.9 | 0.00 | 0.00 | 0.00 | 94 | 1014.7 |
| 20260905035558 | 76 | 240 | 0.0 | 0.9 | 0.00 | 0.00 | 0.00 | 96 | 1014.7 |
| 20260905035055 | 76 | 240 | 0.0 | 0.0 | 0.00 | 0.00 | 0.00 | 95 | 1014.8 |
| 20260905034551 | 76 | 240 | 0.0 | 0.0 | 0.00 | 0.00 | 0.00 | 96 | 1014.8 |
| 20260905034045 | 76 | 240 | 0.0 | 0.0 | 0.00 | 0.00 | 0.00 | 95 | 1014.8 |
| 20260905033544 | 76 | 240 | 0.0 | 0.0 | 0.00 | 0.00 | 0.00 | 96 | 1014.7 |
| 20260905033041 | 76 | 240 | 0.0 | 0.0 | 0.00 | 0.00 | 0.00 | 96 | 1015.0 |
| 20260905032540 | 76 | 240 | 0.0 | 0.0 | 0.00 | 0.00 | 0.00 | 95 | 1014.9 |
| 20260905032035 | 76 | 240 | 0.0 | 0.0 | 0.00 | 0.00 | 0.00 | 96 | 1014.7 |
| 20260905031531 | 76 | 240 | 0.9 | 0.9 | 0.00 | 0.00 | 0.00 | 96 | 1014.9 |
| 20260905031031 | 76 | 240 | 0.0 | 0.0 | 0.00 | 0.00 | 0.00 | 96 | 1014.9 |
| 20260905030526 | 76 | 240 | 0.0 | 0.0 | 0.00 | 0.00 | 0.00 | 95 | 1014.9 |
| 20260905030026 | 76 | 240 | 0.0 | 0.0 | 0.00 | 0.00 | 0.00 | 95 | 1015.1 |
| 20260905025521 | 76 | 240 | 0.0 | 0.0 | 0.00 | 0.00 | 0.00 | 95 | 1014.7 |
| 20260905025018 | 76 | 240 | 0.0 | 0.0 | 0.00 | 0.00 | 0.00 | 95 | 1014.9 |
| 20260905024513 | 77 | 240 | 0.0 | 0.0 | 0.00 | 0.00 | 0.00 | 95 | 1014.8 |
| 20260905024008 | 76 | 240 | 0.0 | 0.0 | 0.00 | 0.00 | 0.00 | 94 | 1014.6 |
| 20260905023503 | 77 | 240 | 0.0 | 0.0 | 0.00 | 0.00 | 0.00 | 94 | 1014.6 |
| 20260905023002 | 77 | 240 | 0.0 | 0.0 | 0.00 | 0.00 | 0.00 | 94 | 1014.5 |